Вернуться в каталог

GALAXY 6

АктивенСвязьGEO
NORAD 20873·PAYLOAD·🇺🇸 United States

Запущен Oct 12, 1990 с Guiana Space Centre

Loading…

TLE

СвежийSource: Space-Track

Эпоха: Sep 14, 2026, 10:41 UTC

1 20873U 90091B   26257.44538215  .00000015  00000-0  00000-0 0  9999
2 20873  14.0849   9.3265 0006413 229.2710 158.6344  0.99756029 47346

Отслеживайте GALAXY 6 в реальном времени с AllMySat

Download on the App Store